KA7EII-13 Weather Reports


time (UTC)temp
F
wind
direction
speed
knots
gust
knots
rain 1hr
in
rain 24hr
in
rain mn
in
humidity
%
barometer
mb
20260502195757 72 311 4.3 7.0 0.00 0.00 0.00 24 1107.8
20260502195254 72 355 4.3 8.7 0.00 0.00 0.00 25 1108.1
20260502194750 71 162 1.7 1.7 0.00 0.00 0.00 24 1108.2
20260502194248 71 71 2.6 7.0 0.00 0.00 0.00 25 1108.2
20260502193743 71 155 1.7 2.6 0.00 0.00 0.00 23 1108.3
20260502193240 71 259 2.6 5.2 0.00 0.00 0.00 23 1108.1
20260502192735 71 356 5.2 7.0 0.00 0.00 0.00 23 1108.2
20260502192233 72 280 3.5 7.0 0.00 0.00 0.00 23 1108.4
20260502191729 71 167 2.6 7.0 0.00 0.00 0.00 26 1108.3
20260502191227 71 172 0.9 6.1 0.00 0.00 0.00 27 1108.4
20260502190724 71 25 2.6 5.2 0.00 0.00 0.00 25 1108.4
20260502190222 71 231 2.6 6.1 0.00 0.00 0.00 26 1108.6
20260502185721 71 316 1.7 4.3 0.00 0.00 0.00 28 1108.6
20260502185218 70 286 1.7 4.3 0.00 0.00 0.00 27 1108.7
20260502184714 69 53 2.6 2.6 0.00 0.00 0.00 28 1108.7
20260502184210 70 180 0.0 4.3 0.00 0.00 0.00 27 1109.1
20260502183707 70 268 3.5 5.2 0.00 0.00 0.00 25 1109.2
20260502183203 70 243 1.7 1.7 0.00 0.00 0.00 24 1109.1
20260502182658 70 4 1.7 4.3 0.00 0.00 0.00 25 1109.2
20260502182154 70 273 1.7 2.6 0.00 0.00 0.00 29 1109.0
20260502181652 69 305 1.7 2.6 0.00 0.00 0.00 29 1109.2
20260502181151 69 141 0.9 1.7 0.00 0.00 0.00 30 1109.3
20260502180647 69 194 2.6 4.3 0.00 0.00 0.00 31 1109.2
20260502180144 68 217 1.7 6.1 0.00 0.00 0.00 31 1109.4
20260502170109 63 345 0.9 2.6 0.00 0.00 0.00 35 1109.8
20260502164055 62 19 0.0 2.6 0.00 0.00 0.00 36 1110.1
20260502163551 60 351 1.7 2.6 0.00 0.00 0.00 36 1110.1
20260502163048 60 357 0.9 0.9 0.00 0.00 0.00 37 1110.1
20260502162545 60 347 2.6 4.3 0.00 0.00 0.00 38 1110.1
20260502162042 58 1 1.7 1.7 0.00 0.00 0.00 39 1110.3
20260502161539 59 5 1.7 1.7 0.00 0.00 0.00 40 1110.1
20260502161036 58 0 2.6 2.6 0.00 0.00 0.00 40 1110.2
20260502160534 58 230 0.9 1.7 0.00 0.00 0.00 42 1110.2
20260502151947 54 1 3.5 4.3 0.00 0.00 0.00 47 1110.1
20260502151444 53 17 0.9 4.3 0.00 0.00 0.00 48 1110.2
20260502150941 54 353 1.7 2.6 0.00 0.00 0.00 48 1110.1
20260502150438 54 286 0.9 1.7 0.00 0.00 0.00 48 1110.2
20260502130323 35 195 0.0 0.0 0.00 0.00 0.00 81 1109.7
20260502123809 33 192 0.0 0.0 0.00 0.00 0.00 88 1110.0
20260502123306 33 193 0.0 0.0 0.00 0.00 0.00 87 1109.5
20260502122802 33 193 0.0 0.0 0.00 0.00 0.00 86 1109.8
20260502122259 33 193 0.0 0.0 0.00 0.00 0.00 87 1109.8
20260502121757 33 193 0.0 0.0 0.00 0.00 0.00 86 1109.9
20260502121254 33 193 0.0 0.0 0.00 0.00 0.00 86 1109.7
20260502120751 33 193 0.0 0.0 0.00 0.00 0.00 88 1109.8
20260502120248 33 193 0.0 0.9 0.00 0.00 0.00 89 1109.7
20260502115746 33 194 0.0 0.0 0.00 0.00 0.00 87 1109.9
20260502115242 33 194 0.0 0.0 0.00 0.00 0.00 88 1109.9
20260502114738 33 194 0.0 0.0 0.00 0.00 0.00 89 1109.8
20260502114235 33 194 0.0 0.0 0.00 0.00 0.00 87 1109.8
20260502113732 33 194 0.0 0.0 0.00 0.00 0.00 86 1109.8
20260502113230 33 194 0.0 0.0 0.00 0.00 0.00 86 1109.8
20260502112728 33 194 0.0 0.0 0.00 0.00 0.00 83 1109.9
20260502112226 33 194 0.0 0.0 0.00 0.00 0.00 82 1110.0
20260502111722 33 194 0.0 0.0 0.00 0.00 0.00 82 1110.0
20260502111220 32 194 0.0 0.0 0.00 0.00 0.00 83 1110.2
20260502110717 32 194 0.0 0.0 0.00 0.00 0.00 83 1109.9
20260502110215 32 194 0.0 0.0 0.00 0.00 0.00 83 1109.9
20260502105713 32 194 0.0 0.0 0.00 0.00 0.00 84 1109.9
20260502105209 32 194 0.0 0.0 0.00 0.00 0.00 83 1110.0
20260502104706 32 194 0.0 0.0 0.00 0.00 0.00 82 1109.9
20260502104204 33 194 0.0 0.0 0.00 0.00 0.00 81 1110.1
20260502103701 33 194 0.0 0.0 0.00 0.00 0.00 79 1109.9
20260502103159 34 194 0.0 0.0 0.00 0.00 0.00 79 1110.1
20260502102655 34 193 0.0 0.9 0.00 0.00 0.00 78 1109.9
20260502102152 35 189 0.0 0.0 0.00 0.00 0.00 77 1110.0
20260502101650 35 189 0.0 0.9 0.00 0.00 0.00 77 1110.0
20260502101148 35 188 0.0 0.9 0.00 0.00 0.00 76 1109.8
20260502100646 35 188 0.0 0.0 0.00 0.00 0.00 75 1109.7
20260502100144 35 188 0.0 0.0 0.00 0.00 0.00 75 1109.8
20260502091118 36 188 0.0 0.0 0.00 0.00 0.00 74 1109.8
20260502090616 37 187 0.0 0.0 0.00 0.00 0.00 72 1109.9
20260502090113 37 187 0.0 0.0 0.00 0.00 0.00 72 1109.7
20260502071510 39 196 0.0 0.0 0.00 0.00 0.00 65 1109.5
20260502071008 39 196 0.0 0.0 0.00 0.00 0.00 65 1109.5
20260502070506 40 196 0.0 0.0 0.00 0.00 0.00 65 1109.4
20260502070004 40 196 0.0 0.9 0.00 0.00 0.00 65 1109.5
20260502065502 40 195 0.0 0.0 0.00 0.00 0.00 64 1109.3
20260502065000 40 196 0.0 0.0 0.00 0.00 0.00 64 1109.2
20260502064458 41 195 0.0 0.0 0.00 0.00 0.00 63 1109.4
20260502063954 41 195 0.0 0.0 0.00 0.00 0.00 62 1109.4
20260502063452 41 196 0.0 0.9 0.00 0.00 0.00 62 1109.4
20260502062950 41 196 0.0 0.0 0.00 0.00 0.00 61 1109.2
20260502062446 42 196 0.0 0.0 0.00 0.00 0.00 59 1109.3
20260502061945 42 196 0.0 0.0 0.00 0.00 0.00 58 1109.2
20260502061443 42 196 0.0 0.0 0.00 0.00 0.00 59 1109.4
20260502060939 42 196 0.0 0.0 0.00 0.00 0.00 59 1109.2
20260502060434 41 196 0.0 0.0 0.00 0.00 0.00 61 1109.1
20260502055926 42 196 0.0 0.0 0.00 0.00 0.00 60 1109.3
20260502055423 42 196 0.0 0.0 0.00 0.00 0.00 59 1109.2
20260502054923 42 197 0.0 0.0 0.00 0.00 0.00 59 1109.3
20260502054420 42 197 0.0 0.0 0.00 0.00 0.00 58 1109.1
20260502053918 42 197 0.0 0.0 0.00 0.00 0.00 58 1109.2
20260502053415 42 197 0.0 0.0 0.00 0.00 0.00 57 1109.2
20260502052913 43 197 0.0 0.0 0.00 0.00 0.00 57 1109.3
20260502052411 43 198 0.0 0.0 0.00 0.00 0.00 57 1109.4
20260502051908 43 198 0.0 0.0 0.00 0.00 0.00 56 1109.2
20260502051406 43 198 0.0 0.0 0.00 0.00 0.00 56 1109.0
20260502050903 43 199 0.0 0.0 0.00 0.00 0.00 56 1109.2
20260502050359 43 199 0.0 0.0 0.00 0.00 0.00 55 1109.0
20260502045857 44 202 0.0 0.0 0.00 0.00 0.00 55 1109.2
20260502045353 44 202 0.0 0.9 0.00 0.00 0.00 54 1109.2
20260502044850 44 200 0.0 0.0 0.00 0.00 0.00 52 1109.4
20260502044345 45 200 0.0 0.0 0.00 0.00 0.00 52 1109.2
20260502043843 46 201 0.0 0.9 0.00 0.00 0.00 51 1109.2
20260502043340 46 189 0.0 0.9 0.00 0.00 0.00 50 1109.2
20260502042840 46 188 0.0 1.7 0.00 0.00 0.00 49 1109.4
20260502042337 46 188 0.0 0.0 0.00 0.00 0.00 52 1109.0
20260502041835 46 188 0.0 0.0 0.00 0.00 0.00 51 1109.3
20260502041332 47 188 0.0 0.0 0.00 0.00 0.00 50 1109.2
20260502040829 47 187 0.0 0.9 0.00 0.00 0.00 49 1109.2
20260502040326 48 186 0.0 0.0 0.00 0.00 0.00 47 1109.2
20260502035822 49 186 0.0 0.0 0.00 0.00 0.00 45 1109.2
20260502035319 49 186 0.0 0.0 0.00 0.00 0.00 45 1109.0
20260502034816 50 186 0.9 0.9 0.00 0.00 0.00 44 1109.0
20260502034315 50 187 0.9 0.9 0.00 0.00 0.00 43 1109.1
20260502033812 50 195 0.0 0.0 0.00 0.00 0.00 43 1109.1
20260502033309 51 195 0.0 0.0 0.00 0.00 0.00 42 1108.6
20260502032806 52 195 0.0 0.0 0.00 0.00 0.00 41 1108.9
20260502032305 53 195 0.0 0.0 0.00 0.00 0.00 38 1108.6
20260502031800 54 195 0.0 0.9 0.00 0.00 0.00 36 1108.6
20260502031258 54 200 0.9 1.7 0.00 0.00 0.00 35 1108.5
20260502030756 53 208 0.0 0.9 0.00 0.00 0.00 37 1108.5
20260502030254 54 208 0.0 0.0 0.00 0.00 0.00 34 1108.5
20260502025751 55 208 0.0 0.0 0.00 0.00 0.00 33 1108.4
20260502025249 56 208 0.0 0.0 0.00 0.00 0.00 31 1108.2
20260502024746 57 208 0.0 0.0 0.00 0.00 0.00 30 1108.1
20260502024244 58 210 0.0 0.9 0.00 0.00 0.00 29 1108.2
20260502023742 58 210 0.0 0.0 0.00 0.00 0.00 28 1108.4
20260502023239 59 212 0.0 0.9 0.00 0.00 0.00 27 1108.3
20260502022737 59 214 0.0 0.9 0.00 0.00 0.00 27 1108.3
20260502022233 59 217 0.0 0.9 0.00 0.00 0.00 27 1108.2
20260502021730 59 221 0.0 0.0 0.00 0.00 0.00 28 1108.4
20260502021228 60 224 0.0 0.0 0.00 0.00 0.00 26 1108.3
20260502020724 61 225 0.0 0.0 0.00 0.00 0.00 24 1108.2
20260502020221 62 228 0.0 0.0 0.00 0.00 0.00 23 1108.3
20260502015720 62 231 0.0 0.0 0.00 0.00 0.00 20 1108.2
20260502015215 63 242 0.0 0.0 0.00 0.00 0.00 20 1108.3
20260502014713 64 245 0.0 0.9 0.00 0.00 0.00 19 1108.1
20260502014210 64 232 0.0 0.9 0.00 0.00 0.00 21 1108.3
20260502013706 64 211 0.0 0.9 0.00 0.00 0.00 21 1108.2
20260502013201 64 258 0.0 1.7 0.00 0.00 0.00 19 1108.3
20260502012659 65 226 0.0 0.9 0.00 0.00 0.00 18 1108.2
20260502012157 65 290 0.0 1.7 0.00 0.00 0.00 19 1108.2
20260502011653 65 225 0.9 1.7 0.00 0.00 0.00 18 1108.4
20260502011149 65 345 2.6 2.6 0.00 0.00 0.00 17 1108.3
20260502010647 66 301 0.0 1.7 0.00 0.00 0.00 19 1108.4
20260502010143 66 329 0.9 2.6 0.00 0.00 0.00 18 1108.3
20260502005641 66 336 1.7 2.6 0.00 0.00 0.00 18 1108.4
20260502005138 67 340 2.6 4.3 0.00 0.00 0.00 19 1108.3
20260502004634 68 331 0.9 1.7 0.00 0.00 0.00 17 1108.4
20260502004131 67 244 0.9 2.6 0.00 0.00 0.00 19 1108.5
20260502003629 67 281 1.7 2.6 0.00 0.00 0.00 21 1108.6
20260502003126 69 303 0.9 2.6 0.00 0.00 0.00 20 1108.4
20260502002622 68 239 0.9 1.7 0.00 0.00 0.00 23 1108.3
20260502002119 68 329 1.7 2.6 0.00 0.00 0.00 23 1108.5
20260502001617 68 323 1.7 2.6 0.00 0.00 0.00 19 1108.5
20260502001114 68 208 0.0 0.9 0.00 0.00 0.00 21 1108.5
20260502000612 69 344 3.5 4.3 0.00 0.00 0.00 22 1108.3
20260502000109 69 234 1.7 1.7 0.00 0.00 0.00 23 1108.5
20260501235605 68 242 0.0 0.9 0.00 0.00 0.00 20 1108.5
20260501235101 68 348 2.6 4.3 0.00 0.00 0.00 19 1108.5
20260501234556 67 329 2.6 2.6 0.00 0.00 0.00 21 1108.5
20260501234055 68 328 2.6 4.3 0.00 0.00 0.00 19 1108.5
20260501233553 68 200 0.9 1.7 0.00 0.00 0.00 22 1108.6
20260501233049 68 336 1.7 5.2 0.00 0.00 0.00 21 1108.4
20260501232545 68 239 0.9 4.3 0.00 0.00 0.00 22 1108.5
20260501232043 67 210 0.0 2.6 0.00 0.00 0.00 23 1108.6
20260501231540 67 28 2.6 5.2 0.00 0.00 0.00 23 1108.4
20260501231039 68 338 1.7 4.3 0.00 0.00 0.00 22 1108.5
20260501230537 69 187 1.7 2.6 0.00 0.00 0.00 23 1108.5
20260501230035 68 229 2.6 2.6 0.00 0.00 0.00 23 1108.7
20260501225532 69 274 1.7 2.6 0.00 0.00 0.00 23 1109.1
20260501225028 69 238 2.6 5.2 0.00 0.00 0.00 25 1109.0
20260501224526 69 6 0.9 2.6 0.00 0.00 0.00 23 1108.6
20260501224023 69 267 3.5 5.2 0.00 0.00 0.00 23 1109.1
20260501223519 68 89 1.7 2.6 0.00 0.00 0.00 23 1109.0
20260501223015 68 251 2.6 4.3 0.00 0.00 0.00 22 1109.2
20260501222511 69 41 1.7 2.6 0.00 0.00 0.00 22 1109.0
20260501222009 69 355 1.7 4.3 0.00 0.00 0.00 23 1108.7
20260501221505 67 162 1.7 1.7 0.00 0.00 0.00 24 1109.0
20260501221003 68 323 1.7 4.3 0.00 0.00 0.00 22 1109.2
20260501220500 68 311 1.7 2.6 0.00 0.00 0.00 21 1109.2
20260501215956 67 229 2.6 5.2 0.00 0.00 0.00 23 1109.4
20260501215453 66 281 1.7 1.7 0.00 0.00 0.00 24 1109.3
20260501214948 67 212 1.7 4.3 0.00 0.00 0.00 27 1109.7
20260501214444 67 200 0.9 0.9 0.00 0.00 0.00 26 1109.4
20260501213940 67 266 0.9 4.3 0.00 0.00 0.00 25 1109.5
20260501213437 66 358 3.5 5.2 0.00 0.00 0.00 26 1109.7
20260501212932 67 308 1.7 4.3 0.00 0.00 0.00 26 1110.0
20260501212430 67 279 0.9 2.6 0.00 0.00 0.00 24 1109.9
20260501211926 67 234 1.7 2.6 0.00 0.00 0.00 29 1109.9
20260501211424 67 267 2.6 7.0 0.00 0.00 0.00 26 1110.0
20260501210921 67 250 0.9 1.7 0.00 0.00 0.00 28 1109.9
20260501210418 66 343 0.9 0.9 0.00 0.00 0.00 27 1110.0
20260501205914 65 359 2.6 7.0 0.00 0.00 0.00 28 1109.5
20260501205411 66 183 0.0 1.7 0.00 0.00 0.00 27 1110.0
20260501204908 66 306 1.7 5.2 0.00 0.00 0.00 28 1110.2
20260501204404 65 66 0.9 2.6 0.00 0.00 0.00 29 1110.1
20260501203900 66 12 6.1 7.8 0.00 0.00 0.00 28 1110.2
20260501203358 66 215 0.0 6.1 0.00 0.00 0.00 29 1110.2
20260501202855 66 10 5.2 6.1 0.00 0.00 0.00 28 1110.0
20260501202352 66 194 0.9 2.6 0.00 0.00 0.00 30 1110.2
20260501201848 66 220 0.9 1.7 0.00 0.00 0.00 27 1110.0
20260501201345 65 311 0.9 2.6 0.00 0.00 0.00 27 1110.2
20260501200842 65 267 3.5 6.1 0.00 0.00 0.00 30 1110.2
20260501200339 64 190 0.0 1.7 0.00 0.00 0.00 28 1110.3
20260501195837 65 252 3.5 6.1 0.00 0.00 0.00 29 1110.3